FW7842 Weather Reports


time (UTC)temp
C
wind
direction
speed
KPH
gust
KPH
rain 1hr
cm
rain 24hr
cm
rain mn
cm
humidity
%
barometer
mb
20260504192028 13 0.0 0.0 0.00 0.00 0.00 47 1015.8
20260504191019 14 0.0 0.0 0.00 0.00 0.00 45 1015.7
20260504190053 15 0.0 0.0 0.00 0.00 0.00 44 1015.8
20260504185019 15 0.0 0.0 0.00 0.00 0.00 44 1015.8
20260504184027 15 0.0 0.0 0.00 0.00 0.00 44 1015.6
20260504183020 16 0.0 0.0 0.00 0.00 0.00 42 1015.6
20260504182027 16 0.0 0.0 0.00 0.00 0.00 40 1015.5
20260504181036 17 0.0 0.0 0.00 0.00 0.00 38 1015.4
20260504180048 18 0.0 0.0 0.00 0.00 0.00 37 1015.3
20260504175035 20 0.0 0.0 0.00 0.00 0.00 34 1015.1
20260504174027 21 0.0 0.0 0.00 0.00 0.00 33 1015.2
20260504173019 21 0.0 0.0 0.00 0.00 0.00 30 1015.2
20260504172027 22 0.0 0.0 0.00 0.00 0.00 29 1015.1
20260504171040 22 0.0 0.0 0.00 0.00 0.00 27 1015.2
20260504151035 27 154 4.8 12.9 0.00 0.00 0.00 21 1015.4
20260504141036 27 157 1.6 4.8 0.00 0.00 0.00 20 1016.0
20260504081033 21 160 4.8 9.7 0.00 0.00 0.00 29 1019.9
20260504045035 3 0.0 0.0 0.00 0.00 0.00 87 1020.0
20260504044028 2 0.0 0.0 0.00 0.00 0.00 89 1019.9
20260504043033 1 0.0 0.0 0.00 0.00 0.00 90 1019.9
20260504042028 1 0.0 0.0 0.00 0.00 0.00 91 1019.7
20260504041021 0 0.0 0.0 0.00 0.00 0.00 91 1019.7
20260504040028 0 0.0 0.0 0.00 0.00 0.00 90 1019.6
20260504035033 0 0.0 0.0 0.00 0.00 0.00 90 1019.5
20260504034029 0 0.0 0.0 0.00 0.00 0.00 91 1019.5
20260504033020 0 70 0.0 1.6 0.00 0.00 0.00 90 1019.3
20260504032034 0 0.0 0.0 0.00 0.00 0.00 89 1019.3
20260504031033 0 0.0 0.0 0.00 0.00 0.00 89 1019.4
20260504030028 0 0.0 0.0 0.00 0.00 0.00 87 1019.4
20260504025024 1 0.0 0.0 0.00 0.00 0.00 89 1019.4
20260504024028 1 0.0 0.0 0.00 0.00 0.00 88 1019.3
20260504023032 1 0.0 0.0 0.00 0.00 0.00 88 1019.3
20260504022049 1 0.0 0.0 0.00 0.00 0.00 87 1019.1
20260504021020 1 0.0 0.0 0.00 0.00 0.00 87 1019.2
20260504020114 1 0.0 0.0 0.00 0.00 0.00 87 1019.3
20260504015020 1 0.0 0.0 0.00 0.00 0.00 84 1019.2
20260504014028 2 0.0 0.0 0.00 0.00 0.00 86 1019.2
20260504013021 2 0.0 0.0 0.00 0.00 0.00 89 1019.2
20260504012028 2 0.0 0.0 0.00 0.00 0.00 87 1019.1
20260504011053 2 0.0 0.0 0.00 0.00 0.00 88 1019.1
20260504010029 2 0.0 0.0 0.00 0.00 0.00 87 1019.2
20260504005040 2 0.0 0.0 0.00 0.00 0.00 86 1019.1
20260504004054 2 0.0 0.0 0.00 0.00 0.00 84 1019.3
20260504003020 2 0.0 0.0 0.00 0.00 0.00 83 1019.3
20260504002028 2 0.0 0.0 0.00 0.00 0.00 83 1019.3
20260504001021 3 0.0 0.0 0.00 0.00 0.00 82 1019.3
20260504000048 3 0.0 0.0 0.00 0.00 0.00 82 1019.3
20260503235033 3 0.0 0.0 0.00 0.00 0.00 80 1019.2
20260503234028 3 0.0 0.0 0.00 0.00 0.00 81 1019.4
20260503233033 3 0.0 0.0 0.00 0.00 0.00 81 1019.4
20260503232028 3 0.0 0.0 0.00 0.00 0.00 80 1019.4
20260503231033 3 0.0 0.0 0.00 0.00 0.00 80 1019.4
20260503230028 3 0.0 0.0 0.00 0.00 0.00 80 1019.6
20260503225053 3 0.0 0.0 0.00 0.00 0.00 79 1019.5
20260503224048 4 0.0 0.0 0.00 0.00 0.00 78 1019.4
20260503223033 4 0.0 0.0 0.00 0.00 0.00 77 1019.3
20260503222029 5 0.0 0.0 0.00 0.00 0.00 76 1019.4
20260503221033 5 0.0 0.0 0.00 0.00 0.00 76 1019.6
20260503220034 5 0.0 0.0 0.00 0.00 0.00 75 1019.3
20260503215021 5 0.0 0.0 0.00 0.00 0.00 74 1019.4
20260503214028 5 0.0 0.0 0.00 0.00 0.00 71 1019.4
20260503213033 6 0.0 0.0 0.00 0.00 0.00 71 1019.5
20260503212029 6 0.0 0.0 0.00 0.00 0.00 70 1019.5
20260503211020 6 0.0 0.0 0.00 0.00 0.00 69 1019.4
20260503210028 6 0.0 0.0 0.00 0.00 0.00 69 1019.3
20260503205034 6 0.0 0.0 0.00 0.00 0.00 68 1019.3
20260503204028 7 0.0 0.0 0.00 0.00 0.00 67 1019.2
20260503203033 7 0.0 0.0 0.00 0.00 0.00 66 1019.2
20260503202028 7 0.0 0.0 0.00 0.00 0.00 65 1019.1
20260503201033 7 0.0 0.0 0.00 0.00 0.00 65 1019.3
20260503200028 8 0.0 0.0 0.00 0.00 0.00 64 1019.3
20260503195034 8 0.0 0.0 0.00 0.00 0.00 64 1019.3
20260503194028 8 0.0 0.0 0.00 0.00 0.00 62 1019.4
20260503193021 9 0.0 0.0 0.00 0.00 0.00 61 1019.3